Weather History for Quillayute, WA

Change the Weather History Date:

Wednesday, June 26, 2013

  Actual Average Record
Temperature  
Mean Temperature 63 °F 57 °F  
Max Temperature 67 °F 65 °F 90 °F (2006)
Min Temperature 58 °F 49 °F 38 °F (1985)
Degree Days  
Heating Degree Days 2 9  
Month to date heating degree days 178 262  
Since 1 June heating degree days 178 262  
Since 1 July heating degree days 5247 5730  
Cooling Degree Days 0 0  
Month to date cooling degree days 0 0  
Year to date cooling degree days 3 1  
Since 1 June cooling degree days 0 0  
Growing Degree Days 12 (Base 50)    
Moisture  
Dew Point 56 °F    
Average Humidity 80    
Maximum Humidity 87    
Minimum Humidity 73    
Precipitation  
Precipitation 0.22 in 0.09 in 1.14 in (1982)
Month to date precipitation 2.50 3.14  
Year to date precipitation 58.40 51.89  
Sea Level Pressure  
Sea Level Pressure 29.90 in    
Wind  
Wind Speed 7 mph (SSE)    
Max Wind Speed 17 mph    
Max Gust Speed 28 mph    
Visibility 5 miles    
Events Rain    
T = Trace of Precipitation, MM = Missing Value Source: NWS Daily Summary

Daily Weather History Graph

Daily Weather History Graph

Search for Another Location

Airport:

Trip Planner

Search our weather history database for the weather conditions in past years. The results will help you decide how hot, cold, wet, or windy it might be!

Date:

Astronomy

Jun. 26, 2013 Rise Set
Actual Time 5:20 AM PDT 9:21 PM PDT
Civil Twilight 4:39 AM PDT 10:02 PM PDT
Nautical Twilight 3:42 AM PDT 10:59 PM PDT
Astronomical Twilight 2:06 AM PDT 12:34 AM PDT
Moon 11:26 PM PDT 9:38 AM PDT
Length of Visible Light 17h 23m
Length of Day
16h 00m
Waning Gibbous, 84% of the Moon is Illuminated
Jun 26
Waning Gibbous
Jun 29
Last Quarter
Jul 8
New
Jul 15
First Quarter
Jul 22
Full

Hourly Weather History & Observations

Time (PDT) Temp. Dew Point Humidity Pressure Visibility Wind Dir Wind Speed Gust Speed Precip Events Conditions
12:12 AM 59.0 °F 53.6 °F 82% 29.78 in 4.0 mi SE 6.9 mph - 0.03 in Rain Light Rain
12:28 AM 59.0 °F 55.4 °F 88% 29.78 in 1.8 mi SE 8.1 mph - 0.07 in Rain Heavy Rain
12:49 AM 57.2 °F 55.4 °F 94% 29.79 in 3.0 mi Variable 5.8 mph - 0.14 in Rain Light Rain
12:50 AM 59.0 °F 55.0 °F 87% 29.79 in 3.0 mi Variable 5.8 mph - 0.14 in Rain Light Rain
1:11 AM 59.0 °F 55.4 °F 88% 29.80 in 7.0 mi Variable 4.6 mph - 0.00 in   Overcast
1:29 AM 59.0 °F 55.4 °F 88% 29.80 in 7.0 mi South 6.9 mph - 0.00 in   Overcast
1:38 AM 59.0 °F 55.4 °F 88% 29.81 in 6.0 mi South 8.1 mph - 0.00 in   Overcast
1:48 AM 60.8 °F 55.4 °F 82% 29.81 in 6.0 mi SSW 9.2 mph 17.3 mph 0.00 in   Haze
1:53 AM 60.1 °F 55.0 °F 83% 29.81 in 6.0 mi Variable 4.6 mph 17.3 mph 0.00 in   Haze
2:00 AM 60.8 °F 55.4 °F 82% 29.81 in 6.0 mi South 6.9 mph - N/A   Haze
2:22 AM 59.0 °F 55.4 °F 88% 29.81 in 6.0 mi SE 8.1 mph - N/A   Overcast
2:24 AM 59.0 °F 55.4 °F 88% 29.81 in 6.0 mi SSE 6.9 mph - N/A   Overcast
2:53 AM 59.0 °F 54.0 °F 83% 29.82 in 7.0 mi SE 3.5 mph - N/A   Overcast
3:53 AM 57.9 °F 54.0 °F 87% 29.83 in 7.0 mi Calm Calm - 0.00 in   Overcast
4:45 AM 57.2 °F 53.6 °F 88% 29.83 in 6.0 mi East 3.5 mph - N/A   Overcast
4:53 AM 57.9 °F 54.0 °F 87% 29.83 in 4.0 mi East 3.5 mph - 0.01 in Rain Light Rain
5:10 AM 57.2 °F 53.6 °F 88% 29.83 in 6.0 mi Calm Calm - 0.00 in Rain Light Rain
5:48 AM 57.2 °F 53.6 °F 88% 29.83 in 6.0 mi East 4.6 mph - 0.00 in Rain Light Rain
5:53 AM 57.9 °F 54.0 °F 87% 29.83 in 5.0 mi ENE 5.8 mph - 0.00 in Rain Light Rain
6:11 AM 57.2 °F 53.6 °F 88% 29.83 in 2.0 mi East 4.6 mph - 0.02 in Rain Light Rain
6:20 AM 57.2 °F 53.6 °F 88% 29.83 in 3.0 mi East 4.6 mph - 0.03 in Rain Light Rain
6:27 AM 57.2 °F 53.6 °F 88% 29.83 in 2.5 mi East 4.6 mph - 0.04 in Rain Light Rain
6:35 AM 57.2 °F 53.6 °F 88% 29.84 in 1.2 mi East 4.6 mph - 0.05 in Rain Rain
6:46 AM 57.2 °F 53.6 °F 88% 29.84 in 2.0 mi East 5.8 mph - 0.08 in Rain Light Rain
6:53 AM 57.9 °F 54.0 °F 87% 29.84 in 7.0 mi East 4.6 mph - 0.08 in   Overcast
7:12 AM 59.0 °F 55.4 °F 88% 29.84 in 2.5 mi SE 3.5 mph - 0.02 in Rain Rain
7:23 AM 59.0 °F 55.4 °F 88% 29.85 in 2.0 mi Calm Calm - 0.03 in Rain Rain
7:40 AM 60.8 °F 55.4 °F 82% 29.85 in 6.0 mi East 3.5 mph - 0.05 in Rain Light Rain
7:53 AM 60.1 °F 55.9 °F 86% 29.85 in 8.0 mi East 3.5 mph - 0.05 in   Overcast
8:27 AM 60.8 °F 55.4 °F 82% 29.86 in 1.8 mi Variable 4.6 mph - 0.02 in Rain Rain
8:34 AM 60.8 °F 55.4 °F 82% 29.86 in 2.0 mi Variable 4.6 mph - 0.03 in Rain Rain
8:42 AM 60.8 °F 55.4 °F 82% 29.86 in 1.8 mi Variable 4.6 mph - 0.04 in Rain Rain
8:53 AM 61.0 °F 55.9 °F 83% 29.87 in 4.0 mi SSE 8.1 mph - 0.06 in Rain Light Rain
9:16 AM 60.8 °F 57.2 °F 88% 29.87 in 6.0 mi Variable 3.5 mph - 0.01 in Rain Light Rain
9:24 AM 60.8 °F 57.2 °F 88% 29.87 in 6.0 mi Variable 3.5 mph - 0.01 in   Overcast
9:37 AM 62.6 °F 57.2 °F 82% 29.87 in 5.0 mi Variable 5.8 mph - 0.01 in   Haze
9:53 AM 62.1 °F 57.0 °F 84% 29.88 in 5.0 mi South 6.9 mph 17.3 mph 0.01 in   Haze
10:07 AM 62.6 °F 57.2 °F 82% 29.88 in 5.0 mi Variable 6.9 mph - N/A   Haze
10:17 AM 62.6 °F 57.2 °F 82% 29.89 in 5.0 mi South 9.2 mph - N/A   Haze
10:53 AM 62.1 °F 57.0 °F 84% 29.90 in 4.0 mi SSW 8.1 mph 20.7 mph N/A   Haze
11:00 AM 62.6 °F 57.2 °F 82% 29.90 in 4.0 mi Variable 6.9 mph - N/A   Haze
11:03 AM 62.6 °F 57.2 °F 82% 29.90 in 4.0 mi South 9.2 mph - N/A   Haze
11:12 AM 64.4 °F 57.2 °F 77% 29.91 in 4.0 mi SSW 8.1 mph 18.4 mph N/A   Haze
11:21 AM 64.4 °F 57.2 °F 77% 29.91 in 5.0 mi South 9.2 mph 18.4 mph N/A   Haze
11:45 AM 64.4 °F 57.2 °F 77% 29.91 in 5.0 mi South 8.1 mph - N/A   Haze
11:53 AM 64.0 °F 57.0 °F 78% 29.92 in 5.0 mi South 8.1 mph 17.3 mph N/A   Haze
12:21 PM 64.4 °F 57.2 °F 77% 29.92 in 5.0 mi South 10.4 mph 20.7 mph N/A   Haze
12:53 PM 64.0 °F 57.9 °F 80% 29.94 in 5.0 mi South 11.5 mph 18.4 mph N/A   Haze
1:33 PM 66.2 °F 57.2 °F 73% 29.95 in 5.0 mi SSW 13.8 mph 24.2 mph N/A   Haze
1:53 PM 64.9 °F 57.9 °F 78% 29.96 in 5.0 mi South 11.5 mph 24.2 mph N/A   Haze
2:53 PM 64.9 °F 57.0 °F 75% 29.98 in 5.0 mi SSW 10.4 mph 23.0 mph N/A   Haze
3:53 PM 66.0 °F 57.0 °F 73% 29.99 in 6.0 mi South 15.0 mph 23.0 mph N/A   Haze
4:53 PM 64.9 °F 57.0 °F 75% 30.01 in 5.0 mi SSW 10.4 mph 23.0 mph 0.00 in   Haze
5:53 PM 64.0 °F 57.0 °F 78% 30.01 in 5.0 mi South 10.4 mph 21.9 mph N/A   Haze
6:07 PM 64.4 °F 57.2 °F 77% 30.02 in 5.0 mi South 12.7 mph 23.0 mph N/A   Haze
6:20 PM 64.4 °F 55.4 °F 73% 30.02 in 5.0 mi South 12.7 mph 20.7 mph N/A   Haze
6:53 PM 63.0 °F 55.9 °F 78% 30.02 in 5.0 mi South 9.2 mph 18.4 mph N/A   Haze
7:23 PM 62.6 °F 55.4 °F 77% 30.03 in 5.0 mi South 10.4 mph 18.4 mph N/A   Haze
7:49 PM 62.6 °F 55.4 °F 77% 30.03 in 5.0 mi SSW 6.9 mph - N/A   Haze
7:53 PM 63.0 °F 55.9 °F 78% 30.03 in 5.0 mi Variable 5.8 mph - N/A   Haze
8:05 PM 62.6 °F 55.4 °F 77% 30.03 in 5.0 mi South 5.8 mph - N/A   Haze
8:46 PM 62.6 °F 55.4 °F 77% 30.03 in 5.0 mi Variable 4.6 mph - N/A   Haze
8:53 PM 63.0 °F 55.9 °F 78% 30.03 in 5.0 mi Variable 3.5 mph - N/A   Haze
9:53 PM 62.1 °F 55.9 °F 80% 30.04 in 7.0 mi ESE 4.6 mph - N/A   Overcast
10:53 PM 62.1 °F 55.0 °F 78% 30.04 in 8.0 mi East 3.5 mph - N/A   Overcast
11:53 PM 61.0 °F 55.0 °F 81% 30.04 in 8.0 mi East 4.6 mph - N/A   Overcast